IW1RCO-13 Weather Reports


Display with metric or nautical units.
time (UTC)temp
F
wind
direction
speed
MPH
gust
MPH
rain 1hr
in
rain 24hr
in
rain mn
in
humidity
%
barometer
mb
20260507213901 52 0.0 0.0 0.00 0.00 0.00 76 1013.7
20260507213405 52 0.0 0.0 0.00 0.00 0.00 76 1014.0
20260507212901 52 0.0 0.0 0.00 0.00 0.00 76 1013.1
20260507212404 52 0.0 0.0 0.00 0.00 0.00 76 1014.2
20260507211901 52 0.0 0.0 0.00 0.00 0.00 76 1013.9
20260507211404 52 0.0 0.0 0.00 0.00 0.00 77 1013.1
20260507210901 51 0.0 0.0 0.00 0.00 0.00 77 1013.1
20260507210404 51 0.0 0.0 0.00 0.00 0.00 79 1014.0
20260507205900 50 0.0 0.0 0.00 0.00 0.00 83 1013.3
20260507205404 50 0.0 0.0 0.00 0.00 0.00 83 1013.5
20260507204900 50 0.0 0.0 0.00 0.00 0.00 82 1013.7
20260507204403 51 0.0 0.0 0.00 0.00 0.00 82 1013.1
20260507203900 51 0.0 0.0 0.00 0.00 0.00 79 1013.4
20260507203403 52 0.0 0.0 0.00 0.00 0.00 80 1013.4
20260507202900 52 0.0 0.0 0.00 0.00 0.00 79 1013.5
20260507202403 52 0.0 0.0 0.00 0.00 0.00 80 1013.1
20260507201900 52 0.0 0.0 0.00 0.00 0.00 78 1013.3
20260507201403 52 0.0 0.0 0.00 0.00 0.00 77 1013.1
20260507200859 52 0.0 0.0 0.00 0.00 0.00 80 1012.3
20260507200403 52 0.0 0.0 0.00 0.00 0.00 79 1012.9
20260507195859 52 0.0 0.0 0.00 0.00 0.00 84 1012.4
20260507195402 52 0.0 0.0 0.00 0.00 0.00 80 1013.0
20260507194906 52 0.0 0.0 0.00 0.00 0.00 83 1012.2
20260507194402 51 0.0 0.0 0.00 0.00 0.00 85 1012.5
20260507193905 51 0.0 0.0 0.00 0.00 0.00 83 1012.1
20260507193402 52 0.0 0.0 0.00 0.00 0.00 83 1012.2
20260507192905 53 0.0 0.0 0.00 0.00 0.00 83 1012.2
20260507192402 53 0.0 0.0 0.00 0.00 0.00 84 1012.2
20260507191905 52 0.0 0.0 0.00 0.00 0.00 86 1012.7
20260507191401 52 0.0 0.0 0.00 0.00 0.00 86 1012.2
20260507190905 51 0.0 0.0 0.00 0.00 0.00 89 1012.4
20260507190402 51 0.0 0.0 0.00 0.00 0.00 89 1012.6
20260507185904 51 0.0 0.0 0.00 0.00 0.00 91 1011.9
20260507185401 51 0.0 0.0 0.00 0.00 0.00 92 1012.8
20260507184904 52 0.0 0.0 0.00 0.00 0.00 92 1012.3
20260507184401 52 0.0 0.0 0.00 0.00 0.00 91 1012.2
20260507180400 54 0.0 0.0 0.00 0.00 0.00 88 1012.5
20260507175903 54 0.0 0.0 0.00 0.00 0.00 88 1012.3
20260507175400 54 0.0 0.0 0.00 0.00 0.00 87 1012.4
20260507174903 54 0.0 0.0 0.00 0.00 0.00 87 1012.2
20260507174359 56 0.0 0.0 0.00 0.00 0.00 85 1012.1
20260507173903 56 0.0 0.0 0.00 0.00 0.00 86 1012.6
20260507173359 56 0.0 0.0 0.00 0.00 0.00 85 1012.0
20260507172903 56 0.0 0.0 0.00 0.00 0.00 85 1012.1
20260507172359 56 0.0 0.0 0.00 0.00 0.00 85 1012.1
20260507171902 56 0.0 0.0 0.00 0.00 0.00 85 1012.2
20260507171406 56 0.0 0.0 0.00 0.00 0.00 85 1012.3
20260507170902 57 0.0 0.0 0.00 0.00 0.00 84 1011.9
20260507170405 57 0.0 0.0 0.00 0.00 0.00 81 1012.2
20260507165902 57 0.0 0.0 0.00 0.00 0.00 80 1012.0
20260507165405 57 0.0 0.0 0.00 0.00 0.00 80 1012.1
20260507164902 57 0.0 0.0 0.00 0.00 0.00 81 1012.5
20260507164405 58 0.0 0.0 0.00 0.00 0.00 79 1012.3
20260507163902 59 0.0 0.0 0.00 0.00 0.00 76 1012.1
20260507163405 61 0.0 0.0 0.00 0.00 0.00 72 1012.0
20260507162901 62 0.0 0.0 0.00 0.00 0.00 73 1012.1
20260507162405 62 0.0 0.0 0.00 0.00 0.00 70 1011.6
20260507161901 62 0.0 0.0 0.00 0.00 0.00 73 1011.9
20260507161404 60 0.0 0.0 0.00 0.00 0.00 73 1011.6
20260507160901 58 0.0 0.0 0.00 0.00 0.00 79 1012.3
20260507160404 57 0.0 0.0 0.00 0.00 0.00 81 1012.3
20260507155901 57 0.0 0.0 0.00 0.00 0.00 79 1012.2
20260507155404 57 0.0 0.0 0.00 0.00 0.00 81 1012.0
20260507154901 57 0.0 0.0 0.00 0.00 0.00 80 1012.2
20260507154404 60 0.0 0.0 0.00 0.00 0.00 76 1012.1
20260507153900 63 0.0 0.0 0.00 0.00 0.00 71 1012.2
20260507153403 61 0.0 0.0 0.00 0.00 0.00 73 1011.8
20260507152900 58 0.0 0.0 0.00 0.00 0.00 78 1012.1
20260507152403 58 0.0 0.0 0.00 0.00 0.00 79 1011.9
20260507151900 57 0.0 0.0 0.00 0.00 0.00 82 1012.0
20260507151403 58 0.0 0.0 0.00 0.00 0.00 81 1012.2
20260507150859 59 0.0 0.0 0.00 0.00 0.00 78 1012.2
20260507150403 62 0.0 0.0 0.00 0.00 0.00 73 1012.0
20260507145859 62 0.0 0.0 0.00 0.00 0.00 74 1012.2
20260507145403 59 0.0 0.0 0.00 0.00 0.00 77 1012.0
20260507144859 62 0.0 0.0 0.00 0.00 0.00 73 1012.2
20260507144402 61 0.0 0.0 0.00 0.00 0.00 78 1012.2
20260507143906 58 0.0 0.0 0.00 0.00 0.00 81 1012.5
20260507140403 58 0.0 0.0 0.00 0.00 0.00 82 1012.2
20260507135905 58 0.0 0.0 0.00 0.00 0.00 81 1012.1
20260507135401 59 0.0 0.0 0.00 0.00 0.00 78 1012.2
20260507134904 60 0.0 0.0 0.00 0.00 0.00 74 1012.0
20260507134401 64 0.0 0.0 0.00 0.00 0.00 68 1012.3
20260507133904 60 0.0 0.0 0.00 0.00 0.00 73 1012.7
20260507133401 58 0.0 0.0 0.00 0.00 0.00 77 1012.3
20260507132904 58 0.0 0.0 0.00 0.00 0.00 80 1012.0
20260507132400 60 0.0 0.0 0.00 0.00 0.00 77 1013.1
20260507131905 62 0.0 0.0 0.00 0.00 0.00 73 1012.1
20260507131400 60 0.0 0.0 0.00 0.00 0.00 72 1012.3
20260507130904 60 0.0 0.0 0.00 0.00 0.00 75 1011.8
20260507130400 60 0.0 0.0 0.00 0.00 0.00 72 1011.9
20260507125903 61 0.0 0.0 0.00 0.00 0.00 71 1012.2
20260507125400 64 0.0 0.0 0.00 0.00 0.00 65 1012.2
20260507124903 65 0.0 0.0 0.00 0.00 0.00 62 1012.3
20260507124400 65 0.0 0.0 0.00 0.00 0.00 63 1012.1
20260507123903 64 0.0 0.0 0.00 0.00 0.00 67 1011.9
20260507123359 63 0.0 0.0 0.00 0.00 0.00 68 1012.5
20260507122903 62 0.0 0.0 0.00 0.00 0.00 69 1012.1
20260507122359 64 0.0 0.0 0.00 0.00 0.00 65 1011.8
20260507121359 63 0.0 0.0 0.00 0.00 0.00 68 1012.3
20260507120902 64 0.0 0.0 0.00 0.00 0.00 64 1012.3
20260507120406 65 0.0 0.0 0.00 0.00 0.00 61 1012.2
20260507115902 65 0.0 0.0 0.00 0.00 0.00 65 1012.3
20260507115405 63 0.0 0.0 0.00 0.00 0.00 69 1012.2
20260507114902 60 0.0 0.0 0.00 0.00 0.00 73 1012.0
20260507114405 59 0.0 0.0 0.00 0.00 0.00 76 1012.4
20260507113901 60 0.0 0.0 0.00 0.00 0.00 74 1012.0
20260507113405 60 0.0 0.0 0.00 0.00 0.00 76 1012.3
20260507112901 59 0.0 0.0 0.00 0.00 0.00 74 1012.4
20260507112404 61 0.0 0.0 0.00 0.00 0.00 71 1012.2
20260507111901 62 0.0 0.0 0.00 0.00 0.00 70 1012.2
20260507111404 62 0.0 0.0 0.00 0.00 0.00 66 1011.9
20260507110901 63 0.0 0.0 0.00 0.00 0.00 65 1012.0
20260507110404 62 0.0 0.0 0.00 0.00 0.00 69 1012.3
20260507105901 62 0.0 0.0 0.00 0.00 0.00 71 1012.1
20260507105404 60 0.0 0.0 0.00 0.00 0.00 71 1012.5
20260507104900 62 0.0 0.0 0.00 0.00 0.00 68 1012.3
20260507104404 62 0.0 0.0 0.00 0.00 0.00 68 1012.2
20260507103900 63 0.0 0.0 0.00 0.00 0.00 76 1012.1
20260507100403 59 0.0 0.0 0.00 0.00 0.00 75 1011.9
20260507095859 61 0.0 0.0 0.00 0.00 0.00 71 1012.0
20260507095403 60 0.0 0.0 0.00 0.00 0.00 71 1012.8
20260507094859 60 0.0 0.0 0.00 0.00 0.00 75 1011.9
20260507094403 58 0.0 0.0 0.00 0.00 0.00 77 1012.0
20260507093859 57 0.0 0.0 0.00 0.00 0.00 78 1012.3
20260507093402 58 0.0 0.0 0.00 0.00 0.00 80 1012.6
20260507092906 56 0.0 0.0 0.00 0.00 0.00 81 1012.6
20260507092402 57 0.0 0.0 0.00 0.00 0.00 79 1012.1
20260507091905 58 0.0 0.0 0.00 0.00 0.00 74 1012.2
20260507091402 58 0.0 0.0 0.00 0.00 0.00 76 1012.6
20260507090905 58 0.0 0.0 0.00 0.00 0.00 77 1012.3
20260507090402 59 0.0 0.0 0.00 0.00 0.00 77 1012.2
20260507085905 59 0.0 0.0 0.00 0.00 0.00 76 1012.3
20260507085401 59 0.0 0.0 0.00 0.00 0.00 76 1012.5
20260507084905 59 0.0 0.0 0.00 0.00 0.00 79 1012.5
20260507084401 58 0.0 0.0 0.00 0.00 0.00 78 1012.3
20260507083904 57 0.0 0.0 0.00 0.00 0.00 77 1012.1
20260507083401 56 0.0 0.0 0.00 0.00 0.00 79 1011.9
20260507082904 55 0.0 0.0 0.00 0.00 0.00 82 1012.1
20260507082401 55 0.0 0.0 0.00 0.00 0.00 80 1012.0
20260507081904 56 0.0 0.0 0.00 0.00 0.00 80 1012.3
20260507081400 56 0.0 0.0 0.00 0.00 0.00 80 1012.3
20260507080904 56 0.0 0.0 0.00 0.00 0.00 81 1012.0
20260507080400 56 0.0 0.0 0.00 0.00 0.00 79 1011.8
20260507075904 55 0.0 0.0 0.00 0.00 0.00 78 1011.7
20260507075400 55 0.0 0.0 0.00 0.00 0.00 85 1012.0
20260507074903 54 0.0 0.0 0.00 0.00 0.00 85 1012.0
20260507074400 54 0.0 0.0 0.00 0.00 0.00 85 1012.3
20260507073903 54 0.0 0.0 0.00 0.00 0.00 86 1012.2
20260507073400 55 0.0 0.0 0.00 0.00 0.00 82 1011.7
20260507072903 55 0.0 0.0 0.00 0.00 0.00 82 1012.0
20260507072359 54 0.0 0.0 0.00 0.00 0.00 86 1012.0
20260507071903 53 0.0 0.0 0.00 0.00 0.00 87 1012.0
20260507071359 54 0.0 0.0 0.00 0.00 0.00 85 1012.1
20260507070903 54 0.0 0.0 0.00 0.00 0.00 84 1011.4
20260507070359 54 0.0 0.0 0.00 0.00 0.00 83 1012.0
20260507065902 53 0.0 0.0 0.00 0.00 0.00 84 1011.6
20260507065406 54 0.0 0.0 0.00 0.00 0.00 82 1012.0
20260507064902 54 0.0 0.0 0.00 0.00 0.00 84 1011.7
20260507064405 54 0.0 0.0 0.00 0.00 0.00 83 1012.0
20260507063902 54 0.0 0.0 0.00 0.00 0.00 84 1011.6
20260507060404 52 0.0 0.0 0.00 0.00 0.00 87 1011.3
20260507055901 51 0.0 0.0 0.00 0.00 0.00 87 1011.2
20260507055404 51 0.0 0.0 0.00 0.00 0.00 89 1011.3
20260507054901 51 0.0 0.0 0.00 0.00 0.00 89 1011.4
20260507054404 50 0.0 0.0 0.00 0.00 0.00 89 1011.1
20260507053900 50 0.0 0.0 0.00 0.00 0.00 89 1010.3
20260507053404 50 0.0 0.0 0.00 0.00 0.00 89 1010.3
20260507052900 50 0.0 0.0 0.00 0.00 0.00 90 1011.3
20260507052403 50 0.0 0.0 0.00 0.00 0.00 90 1011.3
20260507051900 50 0.0 0.0 0.00 0.00 0.00 90 1010.3
20260507051403 50 0.0 0.0 0.00 0.00 0.00 90 1011.0
20260507050900 50 0.0 0.0 0.00 0.00 0.00 89 1010.7
20260507050403 50 0.0 0.0 0.00 0.00 0.00 89 1010.4
20260507045859 49 0.0 0.0 0.00 0.00 0.00 89 1010.7
20260507045403 49 0.0 0.0 0.00 0.00 0.00 89 1010.1
20260507044859 49 0.0 0.0 0.00 0.00 0.00 89 1010.5
20260507044403 49 0.0 0.0 0.00 0.00 0.00 90 1009.6
20260507043859 49 0.0 0.0 0.00 0.00 0.00 90 1010.7
20260507043402 48 0.0 0.0 0.00 0.00 0.00 92 1010.4
20260507042402 48 0.0 0.0 0.00 0.00 0.00 93 1010.2
20260507041859 48 0.0 0.0 0.00 0.00 0.00 92 1010.5
20260507041402 48 0.0 0.0 0.00 0.00 0.00 92 1011.1
20260507040905 48 0.0 0.0 0.00 0.00 0.00 93 1011.1
20260507040402 47 0.0 0.0 0.00 0.00 0.00 94 1011.0
20260507035905 47 0.0 0.0 0.00 0.00 0.00 94 1011.1
20260507035402 47 0.0 0.0 0.00 0.00 0.00 94 1010.5
20260507034905 47 0.0 0.0 0.00 0.00 0.00 94 1010.9
20260507034401 47 0.0 0.0 0.00 0.00 0.00 94 1010.8
20260507033905 47 0.0 0.0 0.00 0.00 0.00 95 1010.7
20260507033401 47 0.0 0.0 0.00 0.00 0.00 95 1011.3
20260507032905 47 0.0 0.0 0.00 0.00 0.00 94 1010.9
20260507032401 47 0.0 0.0 0.00 0.00 0.00 94 1010.7
20260507031904 47 0.0 0.0 0.00 0.00 0.00 94 1010.5
20260507031401 47 0.0 0.0 0.00 0.00 0.00 94 1011.1
20260507030904 47 0.0 0.0 0.00 0.00 0.00 94 1010.5
20260507030401 47 0.0 0.0 0.00 0.00 0.00 94 1011.7
20260507025904 48 0.0 0.0 0.00 0.00 0.00 93 1010.7
20260507025400 47 0.0 0.0 0.00 0.00 0.00 94 1011.0
20260507024904 48 0.0 0.0 0.00 0.00 0.00 93 1010.1
20260507024400 48 0.0 0.0 0.00 0.00 0.00 92 1011.1
20260507020400 48 0.0 0.0 0.00 0.00 0.00 95 1010.7
20260507015903 48 0.0 0.0 0.00 0.00 0.00 95 1011.3
20260507015400 48 0.0 0.0 0.00 0.00 0.00 95 1011.1
20260507014903 48 0.0 0.0 0.00 0.00 0.00 95 1010.4
20260507014400 49 0.0 0.0 0.00 0.00 0.00 94 1010.7
20260507013359 49 0.0 0.0 0.00 0.00 0.00 94 1011.1
20260507012902 50 0.0 0.0 0.00 0.00 0.00 92 1010.8
20260507012359 50 0.0 0.0 0.00 0.00 0.00 92 1010.8
20260507011902 50 0.0 0.0 0.00 0.00 0.00 92 1011.2
20260507011405 50 0.0 0.0 0.00 0.00 0.00 93 1011.6
20260507010902 50 0.0 0.0 0.00 0.00 0.00 93 1011.0
20260507010405 50 0.0 0.0 0.00 0.00 0.00 93 1010.8
20260507005902 50 0.0 0.0 0.00 0.00 0.00 94 1010.8
20260507005405 50 0.0 0.0 0.00 0.00 0.00 94 1010.4
20260507004901 50 0.0 0.0 0.00 0.00 0.00 94 1011.6
20260507004405 50 0.0 0.0 0.00 0.00 0.00 93 1010.7
20260507003901 49 0.0 0.0 0.00 0.00 0.00 93 1010.2
20260507003405 49 0.0 0.0 0.00 0.00 0.00 94 1010.6
20260507002901 50 0.0 0.0 0.00 0.00 0.00 94 1010.9
20260507002404 50 0.0 0.0 0.00 0.00 0.00 94 1010.7
20260507001901 50 0.0 0.0 0.00 0.00 0.00 94 1010.5
20260507001404 50 0.0 0.0 0.00 0.00 0.00 93 1011.2
20260507000901 50 0.0 0.0 0.00 0.00 0.00 93 1011.0
20260507000405 50 0.0 0.0 0.00 0.00 0.00 93 1010.4
20260506235901 50 0.0 0.0 0.00 0.00 0.00 94 1011.7
20260506235404 50 0.0 0.0 0.00 0.00 0.00 93 1010.7
20260506234900 50 0.0 0.0 0.00 0.00 0.00 94 1011.3
20260506234404 50 0.0 0.0 0.00 0.00 0.00 94 1010.8
20260506233900 50 0.0 0.0 0.00 0.00 0.00 93 1011.0
20260506233404 50 0.0 0.0 0.00 0.00 0.00 92 1010.9
20260506232900 50 0.0 0.0 0.00 0.00 0.00 91 1011.3
20260506232403 50 0.0 0.0 0.00 0.00 0.00 93 1011.4
20260506231900 50 0.0 0.0 0.00 0.00 0.00 93 1011.0
20260506231403 50 0.0 0.0 0.00 0.00 0.00 93 1011.6
20260506230859 50 0.0 0.0 0.00 0.00 0.00 93 1010.8
20260506230403 50 0.0 0.0 0.00 0.00 0.00 95 1010.7
20260506225859 49 0.0 0.0 0.00 0.00 0.00 95 1010.7
20260506225402 49 0.0 0.0 0.00 0.00 0.00 95 1011.2
20260506224859 50 0.0 0.0 0.00 0.00 0.00 95 1011.0
20260506224402 50 0.0 0.0 0.00 0.00 0.00 95 1011.1
20260506215901 51 0.0 0.0 0.00 0.00 0.00 93 1010.7
20260506215404 50 0.0 0.0 0.00 0.00 0.00 93 1012.0
20260506214901 50 0.0 0.0 0.00 0.00 0.00 94 1011.1
20260506214404 50 0.0 0.0 0.00 0.00 0.00 94 1010.7